Klawock, AK

11:42 AM AKST on December 07, 2016 (GMT -0900)
Klawock

Weather History for PAKW - May, 2013

Change the Weather History Date:

Monday, May 13, 2013

  Actual Average Record
Temperature  
Mean Temperature 50 °F -  
Max Temperature 53 °F 53 °F 78 °F (2016)
Min Temperature 45 °F 37 °F 32 °F (1999)
Degree Days  
Heating Degree Days 16    
Moisture  
Dew Point 46 °F    
Average Humidity 90    
Maximum Humidity 100    
Minimum Humidity 77    
Precipitation  
Precipitation 0.35 in - - ()
Sea Level Pressure  
Sea Level Pressure 29.69 in    
Wind  
Wind Speed 4 mph (SSW)    
Max Wind Speed 9 mph    
Max Gust Speed 23 mph    
Visibility 9 miles    
Events Rain    
Averages and records for this station are not official NWS values.
T = Trace of Precipitation, MM = Missing Value Source: NWS Daily Summary

Daily Weather History Graph

Daily Weather History Graph

Search for Another Location

Airport or City:

Trip Planner

Search our weather history database for the weather conditions in past years. The results will help you decide how hot, cold, wet, or windy it might be!

Date:

Astronomy

May. 13, 2013 Rise Set
Actual Time 4:44 AM AKDT 8:53 PM AKDT
Civil Twilight 3:56 AM AKDT 9:42 PM AKDT
Nautical Twilight 2:44 AM AKDT 10:56 PM AKDT
Astronomical Twilight 1:21 AM AKDT 12:16 AM AKDT
Moon 7:33 AM AKDT (5/13) No Moon Set
Length of Visible Light 17h 46m
Length of Day
16h 09m
Waxing Crescent, 13% of the Moon is Illuminated
May 13
Waxing Crescent
May 17
First Quarter
May 24
Full
May 31
Last Quarter
Jun 8
New

Hourly Weather History & Observations

Time (AKDT) Temp. Windchill Dew Point Humidity Pressure Visibility Wind Dir Wind Speed Gust Speed Precip Events Conditions
12:36 AM 48.2 °F - 48.2 °F 100% 29.61 in 10.0 mi NE 5.8 mph - 0.01 in   Overcast
12:53 AM 48.9 °F - 48.0 °F 97% 29.61 in 10.0 mi NE 5.8 mph - 0.01 in Rain Light Rain
1:02 AM 48.2 °F - 48.2 °F 100% 29.61 in 10.0 mi East 3.5 mph - 0.01 in Rain Light Rain
1:14 AM 48.2 °F - 48.2 °F 100% 29.61 in 10.0 mi Calm Calm - 0.01 in   Overcast
1:40 AM 48.2 °F - 46.4 °F 93% 29.62 in 10.0 mi Calm Calm - 0.01 in Rain Light Rain
1:53 AM 48.9 °F - 48.0 °F 97% 29.62 in 10.0 mi Calm Calm - 0.01 in Rain Light Rain
2:01 AM 48.2 °F - 48.2 °F 100% 29.62 in 7.0 mi Calm Calm - 0.02 in Rain Rain
2:53 AM 50.0 °F - 48.0 °F 93% 29.62 in 9.0 mi Variable 5.8 mph - 0.08 in Rain Light Rain
3:53 AM 48.0 °F - 46.9 °F 96% 29.65 in 9.0 mi SW 6.9 mph - 0.01 in   Overcast
4:53 AM 46.9 °F - 44.1 °F 90% 29.68 in 10.0 mi SSW 8.1 mph 18.4 mph 0.00 in   Overcast
5:09 AM 46.4 °F 42.4 °F 44.6 °F 93% 29.68 in 10.0 mi SSW 8.1 mph - N/A   Overcast
5:30 AM 46.4 °F 45.2 °F 44.6 °F 93% 29.69 in 8.0 mi South 3.5 mph - 0.00 in Rain Light Rain
5:53 AM 46.0 °F 44.8 °F 45.0 °F 96% 29.70 in 9.0 mi WSW 3.5 mph - 0.00 in Rain Light Rain
6:43 AM 46.4 °F - 42.8 °F 87% 29.70 in 10.0 mi Calm Calm - 0.00 in   Overcast
6:53 AM 46.9 °F - 43.0 °F 86% 29.70 in 10.0 mi South 3.5 mph - 0.00 in   Overcast
7:01 AM 46.4 °F - 42.8 °F 87% 29.70 in 10.0 mi Calm Calm - N/A   Overcast
7:34 AM 48.2 °F - 44.6 °F 87% 29.70 in 10.0 mi Calm Calm - N/A   Overcast
7:53 AM 48.9 °F - 44.1 °F 83% 29.70 in 10.0 mi Variable 3.5 mph - N/A   Overcast
8:53 AM 48.9 °F - 45.0 °F 86% 29.70 in 10.0 mi Calm Calm - 0.01 in Rain Light Rain
9:53 AM 50.0 °F - 46.0 °F 86% 29.70 in 7.0 mi Variable 3.5 mph - 0.01 in Rain Light Rain
10:53 AM 52.0 °F - 46.9 °F 83% 29.69 in 10.0 mi Variable 3.5 mph - 0.00 in   Overcast
11:42 AM 51.8 °F - 46.4 °F 82% 29.68 in 8.0 mi Variable 4.6 mph - N/A   Overcast
12:32 PM 53.6 °F - 46.4 °F 77% 29.68 in 10.0 mi Variable 3.5 mph - 0.00 in   Overcast
12:53 PM 53.1 °F - 46.9 °F 80% 29.68 in 10.0 mi Variable 3.5 mph - 0.01 in Rain Light Rain
1:15 PM 53.6 °F - 48.2 °F 82% 29.68 in 10.0 mi SSE 5.8 mph - 0.00 in   Overcast
1:53 PM 52.0 °F - 48.0 °F 86% 29.68 in 10.0 mi Variable 5.8 mph - 0.00 in Rain Light Rain
2:53 PM 53.1 °F - 48.9 °F 86% 29.68 in 10.0 mi Calm Calm - 0.03 in Rain Light Rain
4:19 PM 51.8 °F - 48.2 °F 88% 29.68 in 5.0 mi Variable 3.5 mph - 0.04 in Rain Light Rain
4:37 PM 48.2 °F - 46.4 °F 93% 29.68 in 1.8 mi SW 9.2 mph 17.3 mph 0.06 in Rain Light Rain
4:48 PM 48.2 °F - 46.4 °F 93% 29.68 in 3.0 mi SW 8.1 mph - 0.07 in Rain Light Rain
4:53 PM 48.9 °F - 48.0 °F 97% 29.69 in 9.0 mi SW 5.8 mph - 0.07 in Rain Light Rain
5:53 PM 50.0 °F - 46.9 °F 89% 29.70 in 10.0 mi SSW 4.6 mph - 0.00 in   Overcast
6:53 PM 48.9 °F - 46.9 °F 93% 29.70 in 10.0 mi Calm Calm - 0.04 in   Overcast
7:53 PM 48.0 °F - 45.0 °F 89% 29.71 in 9.0 mi SSW 5.8 mph - 0.00 in Rain Light Rain
8:37 PM 48.2 °F - 44.6 °F 87% 29.72 in 10.0 mi Calm Calm - 0.00 in   Overcast
8:48 PM 48.2 °F - 44.6 °F 87% 29.72 in 10.0 mi Variable 3.5 mph - 0.00 in   Overcast
8:53 PM 48.0 °F - 45.0 °F 89% 29.73 in 10.0 mi Calm Calm - 0.00 in   Overcast
9:53 PM 48.0 °F - 45.0 °F 89% 29.76 in 6.0 mi SSW 4.6 mph - 0.06 in Rain Rain
10:02 PM 46.4 °F 41.9 °F 44.6 °F 93% 29.76 in 8.0 mi SW 9.2 mph - 0.01 in Rain Light Rain
10:15 PM 46.4 °F 42.4 °F 44.6 °F 93% 29.76 in 10.0 mi SSW 8.1 mph 23.0 mph 0.01 in Rain Light Rain
10:25 PM 46.4 °F 42.4 °F 44.6 °F 93% 29.77 in 10.0 mi SSW 8.1 mph - 0.01 in   Overcast
10:53 PM 46.0 °F 43.9 °F 43.0 °F 89% 29.78 in 10.0 mi SSW 4.6 mph - 0.01 in   Overcast
11:53 PM 45.0 °F - 42.1 °F 90% 29.80 in 10.0 mi Calm Calm - 0.00 in Rain Light Rain